Location: Boiro
(42.6475°N, 8.8834°W)
Time: 01:21:24
(UTC+01:00)

Explorer 7 - Pass Details

Date: 08 December 2021
Orbit: 483 x 674 km, 50.3° (Epoch: 23 January)

Event Time Altitude Azimuth Distance (km) Brightness Sun altitude
Rises 11:29:19 0° 299° (WNW) 2,675 9.8 19.1°
Reaches altitude 10° 11:31:36 10° 297° (WNW) 1,754 9.0 19.3°
Maximum altitude 11:35:31 65° 215° (SW) 553 7.3 19.7°
Drops below altitude 10° 11:39:16 10° 133° (SE) 1,674 10.9 20.0°
Sets 11:41:24 0° 131° (SE) 2,540 11.4 20.2°
